This demonstration page uses our WeatherBlox Daily Observations layout. Learn more.

Left ArrowRight Arrow

Hourly Observations for September 20, 2021

Temp ( °F °C ) Dew Point ( °F °C ) Humidity (%) Winds ( mph kmh ) Pressure ( in mb ) Visibility ( mi km ) Precip ( " mm )
12:15 am 00:15 Clear 75 23.7 58 14.5 56 56 SSE 15 24 29.57 1001 10 16 N/A
12:35 am 00:35 Clear 74 23.6 58 14.5 57 57 SSE 13 20 29.57 1001 10 16 N/A
12:55 am 00:55 Clear 74 23.2 58 14.6 59 59 SSE 15 24 29.56 1001 10 16 N/A
1:15 am 01:15 Clear 73 23 58 14.6 59 59 SSE 15 24 29.55 1001 10 16 N/A
1:35 am 01:35 Clear with Nearby Thunderstorms 73 23 58 14.6 59 59 SSE 14 22 29.55 1001 10 16 N/A
1:55 am 01:55 Clear with Nearby Thunderstorms 76 24.2 57 14.1 53 53 S 23 37 29.52 1000 10 16 N/A
2:15 am 02:15 Clear with Rain 73 22.7 60 15.6 64 64 S 28 44 29.52 1000 10 16 N/A
2:35 am 02:35 Mostly Cloudy 72 22.1 60 15.8 68 68 SSE 16 26 29.53 1000 10 16 N/A
2:55 am 02:55 Partly Cloudy 72 22 60 15.5 67 67 SSE 13 20 29.53 1000 10 16 N/A
3:15 am 03:15 Clear 70 21.3 60 15.5 70 70 SSE 12 19 29.53 1000 10 16 N/A
3:35 am 03:35 Clear 70 21 59 15.2 70 70 SSE 8 13 29.53 1000 10 16 N/A
3:55 am 03:55 Clear 69 20.3 59 15.2 73 73 SSE 9 15 29.53 1000 10 16 N/A
4:15 am 04:15 Clear 68 20 59 15.1 74 74 SSE 5 7 29.54 1000 10 16 N/A
4:35 am 04:35 Clear 67 19.5 59 15.2 76 76 NNW 7 11 29.59 1002 10 16 N/A
4:55 am 04:55 Clear 67 19.7 59 15.1 75 75 WNW 3 6 29.59 1002 10 16 N/A
5:15 am 05:15 Clear 67 19.2 59 15 77 77 NNE 6 9 29.59 1002 10 16 N/A
5:35 am 05:35 Clear 66 19.1 59 15.1 78 78 N 8 13 29.63 1003 10 16 N/A
5:55 am 05:55 Clear 63 17 49 9.5 62 62 N 17 28 29.68 1005 10 16 N/A
6:15 am 06:15 Clear 61 16.2 47 8.3 60 60 N 18 30 29.71 1006 10 16 N/A
6:35 am 06:35 Mostly Cloudy 62 16.6 47 8.3 58 58 N 16 26 29.72 1006 10 16 N/A
6:55 am 06:55 Cloudy 63 17 47 8.5 58 58 N 14 22 29.72 1007 10 16 N/A
7:15 am 07:15 Cloudy 64 17.5 47 8.5 56 56 N 12 19 29.73 1007 10 16 N/A
7:35 am 07:35 Cloudy 64 17.5 47 8.6 56 56 N 10 17 29.75 1007 10 16 N/A
7:55 am 07:55 Cloudy 64 17.6 47 8.6 56 56 N 12 19 29.76 1008 10 16 N/A
8:15 am 08:15 Cloudy 64 17.6 48 8.7 56 56 N 10 17 29.76 1008 10 16 N/A
8:35 am 08:35 Mostly Cloudy 64 17.8 48 8.8 56 56 N 8 13 29.77 1008 10 16 N/A
8:55 am 08:55 Partly Cloudy 64 17.5 47 8.6 56 56 NNW 9 15 29.79 1009 10 16 N/A
9:15 am 09:15 Partly Cloudy 65 18.1 48 9.1 56 56 NNW 10 17 29.78 1009 10 16 N/A
9:35 am 09:35 Partly Cloudy 66 18.8 48 9.1 53 53 N 12 19 29.78 1008 10 16 N/A
9:55 am 09:55 Mostly Cloudy 66 18.8 48 9.1 53 53 N 8 13 29.78 1008 10 16 N/A
10:15 am 10:15 Mostly Cloudy 67 19.3 48 9.1 52 52 N 10 17 29.78 1009 10 16 N/A
10:35 am 10:35 Mostly Cloudy 68 20.1 48 9.1 49 49 N 10 17 29.81 1009 10 16 N/A
10:55 am 10:55 Mostly Cloudy 69 20.5 48 9.1 48 48 NNW 10 17 29.81 1010 10 16 N/A
11:15 am 11:15 Cloudy 68 19.8 49 9.4 51 51 NNW 13 20 29.83 1010 10 16 N/A
11:35 am 11:35 Cloudy 68 20 49 9.7 52 52 NW 16 26 29.85 1011 10 16 N/A
11:55 am 11:55 Cloudy 68 20 49 9.6 51 51 WNW 17 28 29.85 1011 10 16 N/A
12:15 pm 12:15 Cloudy 67 19.3 49 9.5 53 53 NW 15 24 29.87 1012 10 16 N/A
12:35 pm 12:35 Cloudy 65 18.5 49 9.5 56 56 NW 16 26 29.89 1012 10 16 N/A
12:55 pm 12:55 Cloudy 65 18.6 50 10.2 58 58 NNW 17 28 29.89 1012 10 16 N/A
1:15 pm 13:15 Partly Cloudy 66 19 52 11 60 60 NNW 16 26 29.90 1012 10 16 N/A
1:35 pm 13:35 Mostly Cloudy 67 19.7 52 11.1 58 58 NW 13 20 29.89 1012 10 16 N/A
1:55 pm 13:55 Partly Cloudy 67 19.4 51 10.7 57 57 NW 21 33 29.89 1012 10 16 N/A
2:15 pm 14:15 Sunny 67 19.5 51 10.3 55 55 NNW 15 24 29.91 1013 10 16 N/A
2:35 pm 14:35 Partly Cloudy 66 18.8 50 10 57 57 NNW 18 30 29.92 1013 10 16 N/A
2:55 pm 14:55 Mostly Cloudy 67 19.5 49 9.7 53 53 NNW 16 26 29.91 1013 10 16 N/A
3:15 pm 15:15 Mostly Cloudy 68 20 50 9.9 52 52 N 16 26 29.91 1013 10 16 N/A
3:35 pm 15:35 Mostly Cloudy 69 20.8 50 10.1 51 51 NNW 9 15 29.90 1013 10 16 N/A
3:55 pm 15:55 Mostly Cloudy 71 21.7 50 10 47 47 NNW 12 19 29.89 1012 10 16 N/A
4:15 pm 16:15 Mostly Cloudy 70 20.9 48 9.1 47 47 NNW 12 19 29.90 1013 10 16 N/A
4:35 pm 16:35 Mostly Cloudy 71 21.5 48 8.7 44 44 N 21 33 29.90 1013 10 16 N/A
4:55 pm 16:55 Mostly Cloudy 69 20.7 44 6.7 40 40 NNW 13 20 29.91 1013 10 16 N/A
5:10 pm 17:10 Partly Cloudy 70 21.3 45 7.2 40 40 NNW 14 22 29.91 1013 10 16 N/A
5:35 pm 17:35 Partly Cloudy 71 21.5 42 5.8 36 36 N 13 20 29.90 1013 10 16 N/A
5:55 pm 17:55 Sunny 71 21.5 44 6.6 38 38 NNW 16 26 29.92 1013 10 16 N/A
6:35 pm 18:35 Sunny 69 20.5 42 5.6 38 38 N 15 24 29.95 1014 10 16 N/A
6:55 pm 18:55 Sunny 68 19.9 44 6.5 42 42 N 10 17 29.97 1015 10 16 N/A
7:15 pm 19:15 Sunny 66 18.9 44 6.6 45 45 N 7 11 29.99 1015 10 16 N/A
7:35 pm 19:35 Sunny 64 17.8 44 6.8 49 49 N 6 9 30.01 1016 10 16 N/A
7:55 pm 19:55 Clear 62 16.8 45 7.2 53 53 N 7 11 30.01 1016 10 16 N/A
8:15 pm 20:15 Clear 61 15.9 46 7.5 58 58 N 7 11 30.04 1017 10 16 N/A
8:35 pm 20:35 Clear 59 15.2 46 7.7 61 61 N 3 6 30.06 1018 10 16 N/A
8:55 pm 20:55 Clear 57 14 47 8.2 68 68 NNW 3 6 30.08 1019 10 16 N/A
9:15 pm 21:15 Clear 56 13.5 47 8.3 71 71 N N/A 30.09 1019 10 16 N/A
9:35 pm 21:35 Clear 55 12.5 47 8.4 76 76 NW 3 6 30.12 1020 10 16 N/A
9:55 pm 21:55 Clear 55 12.6 47 8.2 75 75 NW 3 6 30.13 1020 10 16 N/A
10:15 pm 22:15 Clear 55 12.5 46 8 74 74 N 7 11 30.13 1020 10 16 N/A
10:35 pm 22:35 Clear 55 12.7 46 7.7 72 72 NNW 6 9 30.14 1021 10 16 N/A
10:55 pm 22:55 Clear 55 12.6 46 7.5 71 71 NNW 6 9 30.15 1021 10 16 N/A
11:15 pm 23:15 Clear 53 11.5 46 7.6 77 77 NNW 7 11 30.18 1022 10 16 N/A
11:35 pm 23:35 Clear 53 11.4 45 7.3 76 76 NNW 6 9 30.18 1022 10 16 N/A
11:55 pm 23:55 Clear 52 11.1 45 7.3 78 78 NNW 6 9 30.18 1022 10 16 N/A

Powered by AerisWeather